Location: T�bingen+AIT
(48.5342°N, 9.0700°E)
Time: 01:50:28
(UTC+02:00)

SJ-6B - Pass Details

Date: 14 September 2017
Orbit: 511 x 584 km, 97.7° (Epoch: 23 September)

Event Time Altitude Azimuth Distance (km) Brightness Sun altitude
Rises 20:36:55 0° 176° (S) 2,784 6.2 -10.3°
Reaches altitude 10° 20:39:07 10° 181° (S) 1,883 5.4 -10.7°
Maximum altitude 20:43:07 54° 260° (W) 700 3.7 -11.3°
Drops below altitude 10° 20:47:05 10° 338° (NNW) 1,864 6.1 -11.9°
Sets 20:49:15 0° 343° (NNW) 2,752 6.9 -12.3°
